Location: Invercargill
(46.4000°S, 168.3500°E)
Time: 02:53:49
(UTC+13:00)

Meteor 1-25 Rocket - Pass Details

Date: 24 January 2019
Orbit: 836 x 892 km, 81.2° (Epoch: 18 February)

Event Time Altitude Azimuth Distance (km) Brightness Sun altitude
Rises 23:13:56 0° 189° (S) 3,517 8.5 -14.6°
Reaches altitude 10° 23:16:26 10° 186° (S) 2,578 7.6 -14.9°
Maximum altitude 23:22:17 65° 104° (ESE) 986 4.4 -15.5°
Enters shadow 23:25:56 24° 27° (NNE) 1,783 5.3 -15.9°
